Find Starlink 30178

NORAD ID: 57447 Int'l Des: 2023-105 Owner: SPXS Country: US Constellation: starlink operational
LEOCIRCULAR

实时位置

正在加载3D地球...

关于 Starlink 30178

正在加载描述...

即将过境

Passes for default location (London). Set your location on the main map for personalized predictions.

高度历史

Loading altitude history...

两行轨道根数

1 57447U 23105T 26125.86345758 .00001020 00000-0 46602-4 0 9995
2 57447 43.0032 297.1493 0001766 285.5055 74.5601 15.27586148154321
Epoch: May 5, 2026 • Age: 11 hours

当前状态

高度 484.5 km
速度 7.62 km/s
星下点 -12.35°S, 57.53°W
发射日期 Jul 24, 2023
运行时间 2.7 years
类型 internet

技术详情

分类 Payload
质量 730.00 kg
干质量 700.00 kg
总质量 730.00 kg
长度 0.30 m
直径 4.10 m
跨度 29.00 m
形状 Box + pan
制造商 SPXS
平台类型 Starlink V2M
阶段状态 In Orbit
所有者/国家 SPXS/US

Most Searched